QPF
0.08 0.09 0.10 0.11 0.12 0.11 0.13 0.14 0.12 0.12 0.12 0.11 0.11 0.10 0.07 0.06 0.06 0.07 0.05 0.04 0.06 0.08 0.09 0.12 0.13 0.14 0.15 0.17 0.19 0.19 0.18 0.14 0.11 0.10 0.08 0.07 0.07 0.06 0.04 0.04 0.04 0.04 0.05
0.08 0.08 0.08 0.08 0.10 0.10 0.11 0.10 0.11 0.12 0.12 0.11 0.10 0.09 0.07 0.07 0.06 0.07 0.05 0.05 0.04 0.04 0.06 0.09 0.13 0.16 0.17 0.15 0.16 0.16 0.16 0.15 0.15 0.13 0.10 0.07 0.05 0.05 0.06 0.05 0.04 0.04 0.04
0.07 0.07 0.07 0.07 0.08 0.08 0.09 0.08 0.08 0.09 0.08 0.07 0.08 0.09 0.09 0.09 0.07 0.07 0.06 0.05 0.04 0.03 0.03 0.04 0.07 0.10 0.11 0.13 0.15 0.16 0.16 0.17 0.15 0.15 0.13 0.10 0.08 0.08 0.08 0.08 0.07 0.06 0.05
0.07 0.08 0.08 0.08 0.09 0.09 0.08 0.08 0.08 0.08 0.07 0.06 0.06 0.06 0.07 0.07 0.06 0.06 0.06 0.05 0.05 0.04 0.04 0.03 0.03 0.06 0.08 0.10 0.14 0.18 0.19 0.18 0.17 0.15 0.14 0.14 0.13 0.11 0.10 0.09 0.07 0.06 0.07
0.10 0.10 0.11 0.10 0.10 0.10 0.10 0.08 0.09 0.09 0.09 0.09 0.06 0.05 0.05 0.05 0.05 0.05 0.04 0.05 0.05 0.05 0.05 0.04 0.03 0.04 0.05 0.07 0.10 0.13 0.17 0.21 0.21 0.18 0.17 0.14 0.13 0.14 0.14 0.12 0.09 0.07 0.07
0.09 0.09 0.08 0.08 0.07 0.09 0.10 0.11 0.11 0.10 0.08 0.09 0.09 0.08 0.06 0.06 0.05 0.05 0.05 0.06 0.07 0.06 0.04 0.04 0.05 0.04 0.04 0.05 0.07 0.10 0.14 0.17 0.21 0.22 0.20 0.18 0.16 0.16 0.16 0.14 0.10 0.08 0.07
0.08 0.07 0.06 0.06 0.06 0.08 0.09 0.10 0.09 0.08 0.08 0.09 0.09 0.09 0.07 0.05 0.04 0.04 0.04 0.05 0.05 0.04 0.04 0.04 0.05 0.06 0.05 0.04 0.06 0.09 0.11 0.14 0.18 0.18 0.17 0.18 0.16 0.15 0.17 0.16 0.14 0.11 0.08
0.08 0.06 0.06 0.05 0.05 0.06 0.06 0.07 0.08 0.08 0.08 0.08 0.09 0.09 0.08 0.07 0.05 0.03 0.02 0.02 0.02 0.03 0.03 0.03 0.03 0.04 0.06 0.08 0.07 0.08 0.09 0.11 0.14 0.16 0.16 0.16 0.15 0.15 0.16 0.16 0.16 0.15 0.12
0.07 0.07 0.06 0.07 0.07 0.06 0.06 0.06 0.08 0.09 0.09 0.09 0.08 0.09 0.08 0.08 0.06 0.05 0.04 0.03 0.03 0.04 0.04 0.04 0.04 0.04 0.05 0.07 0.08 0.09 0.08 0.09 0.11 0.13 0.14 0.16 0.16 0.15 0.15 0.14 0.13 0.14 0.14
0.06 0.04 0.04 0.04 0.04 0.04 0.04 0.05 0.05 0.07 0.09 0.10 0.09 0.08 0.07 0.06 0.06 0.05 0.04 0.03 0.03 0.03 0.03 0.04 0.04 0.04 0.04 0.06 0.07 0.08 0.08 0.08 0.11 0.12 0.13 0.13 0.14 0.15 0.13 0.13 0.12 0.11 0.13
0.04 0.04 0.04 0.03 0.03 0.04 0.05 0.05 0.05 0.06 0.07 0.07 0.08 0.07 0.08 0.08 0.07 0.06 0.05 0.05 0.05 0.03 0.03 0.04 0.05 0.05 0.06 0.08 0.09 0.08 0.08 0.08 0.08 0.10 0.11 0.10 0.10 0.12 0.13 0.13 0.13 0.13 0.13
0.04 0.06 0.05 0.04 0.03 0.03 0.04 0.05 0.07 0.07 0.07 0.06 0.06 0.06 0.07 0.08 0.09 0.09 0.07 0.07 0.06 0.07 0.06 0.06 0.06 0.05 0.05 0.07 0.08 0.10 0.10 0.09 0.08 0.08 0.08 0.08 0.08 0.08 0.09 0.11 0.12 0.12 0.14
0.03 0.04 0.04 0.04 0.04 0.04 0.04 0.04 0.06 0.06 0.06 0.07 0.07 0.07 0.08 0.08 0.07 0.08 0.10 0.09 0.06 0.07 0.08 0.08 0.09 0.09 0.07 0.06 0.06 0.08 0.07 0.07 0.07 0.07 0.06 0.05 0.05 0.06 0.08 0.08 0.10 0.12 0.13
0.03 0.04 0.05 0.05 0.05 0.05 0.05 0.04 0.04 0.04 0.04 0.05 0.06 0.07 0.07 0.06 0.07 0.07 0.08 0.10 0.08 0.05 0.05 0.08 0.10 0.11 0.10 0.07 0.05 0.05 0.04 0.04 0.03 0.04 0.04 0.04 0.04 0.05 0.06 0.07 0.07 0.10 0.10
0.03 0.04 0.04 0.04 0.04 0.05 0.05 0.05 0.05 0.04 0.04 0.04 0.04 0.04 0.05 0.04 0.04 0.04 0.05 0.07 0.09 0.08 0.07 0.08 0.07 0.07 0.06 0.06 0.05 0.04 0.05 0.05 0.03 0.03 0.03 0.03 0.04 0.04 0.04 0.04 0.05 0.07 0.08
0.03 0.03 0.03 0.04 0.04 0.05 0.06 0.06 0.05 0.05 0.05 0.05 0.04 0.03 0.03 0.03 0.02 0.02 0.03 0.04 0.05 0.07 0.07 0.08 0.08 0.06 0.05 0.05 0.04 0.03 0.04 0.05 0.05 0.03 0.02 0.02 0.03 0.03 0.04 0.04 0.06 0.07 0.08
0.03 0.03 0.03 0.04 0.05 0.05 0.06 0.06 0.05 0.05 0.06 0.06 0.05 0.04 0.03 0.02 0.02 0.02 0.02 0.03 0.04 0.05 0.06 0.05 0.05 0.05 0.06 0.06 0.05 0.04 0.03 0.03 0.03 0.04 0.04 0.03 0.03 0.03 0.04 0.05 0.06 0.08 0.08
0.02 0.03 0.04 0.05 0.06 0.07 0.06 0.05 0.04 0.04 0.06 0.07 0.06 0.05 0.04 0.02 0.02 0.03 0.03 0.03 0.03 0.04 0.04 0.05 0.05 0.05 0.05 0.05 0.05 0.05 0.04 0.03 0.03 0.03 0.03 0.03 0.03 0.02 0.03 0.04 0.06 0.09 0.08
0.03 0.03 0.03 0.04 0.06 0.06 0.07 0.06 0.04 0.04 0.05 0.06 0.05 0.04 0.04 0.03 0.03 0.03 0.03 0.04 0.04 0.03 0.04 0.05 0.06 0.07 0.07 0.05 0.05 0.06 0.05 0.05 0.04 0.04 0.03 0.02 0.02 0.02 0.03 0.04 0.04 0.07 0.08
0.03 0.03 0.03 0.04 0.05 0.05 0.04 0.04 0.04 0.04 0.05 0.05 0.05 0.05 0.04 0.03 0.03 0.04 0.04 0.04 0.04 0.04 0.05 0.06 0.06 0.07 0.07 0.05 0.05 0.07 0.08 0.07 0.04 0.03 0.03 0.03 0.02 0.02 0.02 0.03 0.03 0.02 0.04
0.02 0.02 0.02 0.03 0.04 0.03 0.03 0.04 0.05 0.04 0.05 0.06 0.06 0.05 0.04 0.03 0.03 0.03 0.03 0.03 0.04 0.05 0.05 0.05 0.05 0.04 0.04 0.05 0.05 0.07 0.08 0.06 0.04 0.03 0.04 0.03 0.03 0.02 0.02 0.02 0.03 0.02 0.03
0.04 0.03 0.03 0.04 0.04 0.03 0.04 0.04 0.06 0.05 0.04 0.05 0.06 0.06 0.04 0.03 0.03 0.02 0.02 0.02 0.02 0.03 0.05 0.06 0.05 0.05 0.04 0.05 0.05 0.07 0.06 0.05 0.05 0.05 0.05 0.04 0.03 0.03 0.03 0.03 0.03 0.03 0.03
0.05 0.04 0.03 0.03 0.04 0.03 0.04 0.04 0.06 0.05 0.04 0.04 0.04 0.03 0.03 0.03 0.03 0.03 0.03 0.03 0.02 0.02 0.02 0.04 0.06 0.05 0.05 0.05 0.06 0.05 0.05 0.05 0.05 0.05 0.05 0.05 0.04 0.03 0.03 0.03 0.04 0.04 0.04
0.04 0.03 0.01 0.01 0.02 0.03 0.03 0.03 0.03 0.03 0.03 0.03 0.03 0.03 0.03 0.03 0.02 0.03 0.03 0.04 0.03 0.02 0.03 0.03 0.04 0.04 0.05 0.05 0.04 0.04 0.04 0.04 0.03 0.04 0.05 0.04 0.04 0.03 0.03 0.03 0.03 0.04 0.04
0.03 0.02 0.02 0.02 0.02 0.04 0.03 0.02 0.02 0.02 0.02 0.02 0.02 0.02 0.02 0.02 0.02 0.01 0.02 0.02 0.02 0.02 0.02 0.01 0.01 0.02 0.02 0.02 0.03 0.03 0.03 0.03 0.04 0.04 0.04 0.05 0.04 0.04 0.03 0.03 0.03 0.03 0.03
0.02 0.02 0.02 0.03 0.04 0.04 0.03 0.02 0.01 0.01 0.02 0.02 0.03 0.03 0.03 0.02 0.02 0.02 0.02 0.03 0.03 0.02 0.01 0.01 0.02 0.02 0.02 0.03 0.03 0.03 0.04 0.05 0.04 0.04 0.05 0.05 0.05 0.05 0.05 0.03 0.03 0.03 0.03
MSLP
1011.88 1011.89 1011.86 1011.80 1011.77 1011.76 1011.82 1011.91 1012.04 1012.16 1012.26 1012.31 1012.30 1012.23 1012.14 1012.05 1012.00 1012.03 1012.14 1012.32 1012.56 1012.84 1013.12 1013.38 1013.62 1013.85 1014.06 1014.28 1014.52 1014.79 1015.08 1015.39 1015.70 1015.99 1016.26 1016.50 1016.71 1016.90 1017.08 1017.26 1017.45 1017.65 1017.84
1011.48 1011.45 1011.38 1011.30 1011.24 1011.24 1011.29 1011.41 1011.56 1011.74 1011.88 1011.98 1012.00 1011.96 1011.87 1011.78 1011.70 1011.69 1011.76 1011.90 1012.11 1012.36 1012.63 1012.90 1013.14 1013.37 1013.58 1013.80 1014.03 1014.28 1014.54 1014.83 1015.12 1015.40 1015.66 1015.89 1016.10 1016.30 1016.49 1016.68 1016.88 1017.09 1017.31
1011.14 1011.06 1010.96 1010.86 1010.78 1010.77 1010.83 1010.97 1011.16 1011.37 1011.56 1011.70 1011.76 1011.74 1011.66 1011.55 1011.44 1011.39 1011.40 1011.49 1011.65 1011.86 1012.11 1012.36 1012.61 1012.84 1013.05 1013.26 1013.47 1013.70 1013.94 1014.20 1014.46 1014.72 1014.96 1015.19 1015.40 1015.60 1015.81 1016.02 1016.25 1016.49 1016.74
1010.88 1010.77 1010.63 1010.50 1010.40 1010.37 1010.43 1010.56 1010.77 1011.01 1011.24 1011.41 1011.51 1011.52 1011.45 1011.33 1011.20 1011.10 1011.05 1011.08 1011.18 1011.35 1011.56 1011.79 1012.02 1012.24 1012.44 1012.64 1012.84 1013.05 1013.27 1013.50 1013.74 1013.97 1014.20 1014.42 1014.64 1014.86 1015.09 1015.34 1015.60 1015.88 1016.15
1010.74 1010.58 1010.41 1010.24 1010.10 1010.04 1010.06 1010.18 1010.38 1010.62 1010.86 1011.07 1011.20 1011.24 1011.19 1011.08 1010.94 1010.80 1010.70 1010.68 1010.72 1010.83 1010.99 1011.18 1011.39 1011.59 1011.78 1011.97 1012.15 1012.34 1012.54 1012.75 1012.96 1013.19 1013.42 1013.64 1013.88 1014.12 1014.39 1014.67 1014.97 1015.28 1015.60
1010.74 1010.54 1010.32 1010.09 1009.90 1009.77 1009.74 1009.80 1009.96 1010.18 1010.42 1010.64 1010.80 1010.87 1010.85 1010.76 1010.62 1010.48 1010.35 1010.28 1010.27 1010.32 1010.43 1010.57 1010.73 1010.90 1011.07 1011.24 1011.41 1011.59 1011.78 1011.98 1012.19 1012.42 1012.65 1012.90 1013.16 1013.44 1013.74 1014.06 1014.40 1014.74 1015.08
1010.92 1010.66 1010.38 1010.08 1009.81 1009.59 1009.47 1009.45 1009.54 1009.70 1009.91 1010.12 1010.29 1010.40 1010.42 1010.36 1010.25 1010.12 1009.98 1009.88 1009.82 1009.82 1009.87 1009.96 1010.07 1010.20 1010.34 1010.48 1010.64 1010.82 1011.01 1011.22 1011.45 1011.70 1011.96 1012.24 1012.54 1012.86 1013.19 1013.55 1013.91 1014.28 1014.62
1011.25 1010.94 1010.58 1010.21 1009.84 1009.52 1009.29 1009.16 1009.14 1009.23 1009.38 1009.55 1009.72 1009.84 1009.90 1009.89 1009.82 1009.71 1009.58 1009.47 1009.38 1009.34 1009.33 1009.36 1009.42 1009.50 1009.61 1009.74 1009.88 1010.06 1010.27 1010.50 1010.77 1011.06 1011.37 1011.70 1012.04 1012.40 1012.77 1013.15 1013.52 1013.89 1014.23
1011.70 1011.33 1010.91 1010.46 1010.00 1009.57 1009.22 1008.97 1008.84 1008.81 1008.88 1009.00 1009.14 1009.26 1009.35 1009.37 1009.34 1009.26 1009.16 1009.05 1008.95 1008.86 1008.81 1008.79 1008.79 1008.83 1008.90 1009.02 1009.17 1009.36 1009.59 1009.87 1010.18 1010.53 1010.90 1011.28 1011.67 1012.07 1012.47 1012.86 1013.23 1013.58 1013.88
1012.20 1011.78 1011.31 1010.79 1010.25 1009.73 1009.27 1008.90 1008.64 1008.50 1008.47 1008.52 1008.61 1008.71 1008.79 1008.84 1008.84 1008.80 1008.72 1008.62 1008.51 1008.40 1008.31 1008.24 1008.20 1008.20 1008.25 1008.34 1008.50 1008.71 1008.98 1009.32 1009.69 1010.10 1010.54 1010.98 1011.42 1011.86 1012.27 1012.66 1013.02 1013.33 1013.57
1012.65 1012.20 1011.70 1011.14 1010.55 1009.96 1009.42 1008.96 1008.59 1008.34 1008.20 1008.16 1008.18 1008.23 1008.29 1008.34 1008.36 1008.33 1008.27 1008.18 1008.08 1007.96 1007.84 1007.73 1007.66 1007.62 1007.64 1007.72 1007.88 1008.12 1008.44 1008.83 1009.28 1009.76 1010.26 1010.76 1011.25 1011.71 1012.14 1012.52 1012.85 1013.11 1013.30
1012.97 1012.52 1012.00 1011.43 1010.83 1010.22 1009.64 1009.11 1008.67 1008.33 1008.09 1007.95 1007.88 1007.87 1007.88 1007.90 1007.92 1007.90 1007.85 1007.77 1007.66 1007.53 1007.39 1007.26 1007.14 1007.08 1007.08 1007.16 1007.33 1007.60 1007.96 1008.40 1008.90 1009.46 1010.02 1010.58 1011.11 1011.60 1012.03 1012.41 1012.70 1012.92 1013.05
1013.10 1012.65 1012.16 1011.62 1011.05 1010.46 1009.88 1009.33 1008.84 1008.43 1008.11 1007.88 1007.73 1007.64 1007.59 1007.57 1007.56 1007.53 1007.48 1007.40 1007.28 1007.14 1006.99 1006.83 1006.69 1006.60 1006.58 1006.65 1006.83 1007.12 1007.51 1008.00 1008.56 1009.16 1009.78 1010.39 1010.95 1011.46 1011.91 1012.27 1012.55 1012.73 1012.82
1013.02 1012.61 1012.16 1011.68 1011.16 1010.63 1010.09 1009.57 1009.07 1008.63 1008.25 1007.95 1007.72 1007.55 1007.43 1007.36 1007.30 1007.26 1007.19 1007.10 1006.98 1006.82 1006.65 1006.47 1006.31 1006.19 1006.15 1006.21 1006.38 1006.68 1007.10 1007.62 1008.22 1008.87 1009.52 1010.16 1010.75 1011.28 1011.72 1012.08 1012.35 1012.52 1012.59
1012.80 1012.42 1012.03 1011.62 1011.20 1010.74 1010.28 1009.80 1009.33 1008.88 1008.47 1008.12 1007.82 1007.58 1007.40 1007.28 1007.18 1007.10 1007.02 1006.91 1006.77 1006.60 1006.41 1006.20 1006.01 1005.87 1005.80 1005.84 1006.01 1006.31 1006.74 1007.28 1007.89 1008.55 1009.23 1009.88 1010.48 1011.01 1011.46 1011.82 1012.09 1012.26 1012.34
1012.50 1012.16 1011.84 1011.51 1011.17 1010.81 1010.43 1010.02 1009.59 1009.16 1008.74 1008.35 1008.01 1007.72 1007.50 1007.32 1007.19 1007.08 1006.97 1006.84 1006.69 1006.50 1006.28 1006.05 1005.83 1005.66 1005.57 1005.59 1005.74 1006.02 1006.44 1006.96 1007.58 1008.24 1008.90 1009.54 1010.13 1010.66 1011.10 1011.47 1011.75 1011.94 1012.05
1012.24 1011.93 1011.66 1011.40 1011.15 1010.87 1010.56 1010.22 1009.84 1009.43 1009.02 1008.62 1008.26 1007.94 1007.68 1007.48 1007.32 1007.18 1007.06 1006.91 1006.74 1006.53 1006.29 1006.04 1005.79 1005.59 1005.47 1005.46 1005.58 1005.84 1006.22 1006.73 1007.31 1007.94 1008.56 1009.17 1009.73 1010.23 1010.66 1011.02 1011.31 1011.53 1011.68
1012.08 1011.81 1011.57 1011.37 1011.17 1010.95 1010.70 1010.41 1010.07 1009.69 1009.30 1008.90 1008.53 1008.20 1007.92 1007.70 1007.53 1007.38 1007.24 1007.09 1006.90 1006.68 1006.42 1006.14 1005.88 1005.65 1005.50 1005.46 1005.54 1005.76 1006.11 1006.57 1007.10 1007.66 1008.24 1008.78 1009.29 1009.74 1010.13 1010.48 1010.77 1011.02 1011.22
1012.08 1011.82 1011.61 1011.43 1011.26 1011.08 1010.86 1010.59 1010.28 1009.92 1009.54 1009.15 1008.79 1008.46 1008.18 1007.96 1007.79 1007.64 1007.50 1007.34 1007.15 1006.92 1006.64 1006.35 1006.06 1005.82 1005.65 1005.58 1005.63 1005.80 1006.10 1006.49 1006.94 1007.43 1007.92 1008.38 1008.81 1009.19 1009.53 1009.84 1010.13 1010.40 1010.64
1012.21 1011.96 1011.76 1011.58 1011.41 1011.23 1011.02 1010.76 1010.45 1010.10 1009.74 1009.36 1009.01 1008.69 1008.42 1008.21 1008.04 1007.90 1007.76 1007.61 1007.42 1007.18 1006.91 1006.62 1006.32 1006.06 1005.87 1005.78 1005.79 1005.92 1006.15 1006.46 1006.83 1007.22 1007.61 1007.97 1008.30 1008.59 1008.86 1009.13 1009.39 1009.67 1009.95
1012.42 1012.17 1011.96 1011.76 1011.58 1011.38 1011.16 1010.89 1010.58 1010.24 1009.88 1009.51 1009.17 1008.86 1008.61 1008.41 1008.25 1008.12 1007.99 1007.84 1007.66 1007.44 1007.17 1006.88 1006.58 1006.32 1006.12 1006.00 1005.97 1006.05 1006.22 1006.45 1006.72 1007.01 1007.28 1007.53 1007.75 1007.95 1008.15 1008.35 1008.58 1008.85 1009.15
1012.63 1012.37 1012.14 1011.93 1011.72 1011.50 1011.26 1010.98 1010.66 1010.32 1009.96 1009.60 1009.27 1008.98 1008.74 1008.54 1008.39 1008.26 1008.14 1008.00 1007.83 1007.61 1007.36 1007.08 1006.79 1006.53 1006.32 1006.18 1006.12 1006.14 1006.23 1006.38 1006.56 1006.74 1006.90 1007.04 1007.16 1007.27 1007.39 1007.53 1007.73 1007.98 1008.29
1012.76 1012.50 1012.25 1012.02 1011.80 1011.56 1011.30 1011.01 1010.69 1010.35 1010.00 1009.65 1009.33 1009.04 1008.80 1008.61 1008.46 1008.33 1008.20 1008.06 1007.89 1007.68 1007.44 1007.17 1006.89 1006.63 1006.41 1006.25 1006.15 1006.12 1006.15 1006.22 1006.30 1006.38 1006.45 1006.50 1006.53 1006.55 1006.60 1006.70 1006.85 1007.09 1007.40
1012.78 1012.50 1012.25 1012.01 1011.78 1011.54 1011.28 1011.00 1010.69 1010.36 1010.02 1009.68 1009.36 1009.08 1008.83 1008.62 1008.45 1008.30 1008.16 1008.01 1007.83 1007.62 1007.38 1007.11 1006.84 1006.58 1006.35 1006.16 1006.03 1005.96 1005.92 1005.92 1005.92 1005.92 1005.91 1005.88 1005.85 1005.82 1005.82 1005.88 1006.00 1006.22 1006.52
1012.68 1012.40 1012.14 1011.91 1011.68 1011.46 1011.22 1010.96 1010.68 1010.37 1010.04 1009.71 1009.39 1009.10 1008.83 1008.60 1008.39 1008.21 1008.04 1007.85 1007.65 1007.43 1007.18 1006.91 1006.64 1006.37 1006.13 1005.92 1005.76 1005.64 1005.55 1005.48 1005.43 1005.38 1005.31 1005.24 1005.16 1005.10 1005.08 1005.11 1005.22 1005.41 1005.70
1012.50 1012.22 1011.98 1011.76 1011.56 1011.36 1011.15 1010.93 1010.68 1010.40 1010.09 1009.76 1009.44 1009.12 1008.82 1008.54 1008.30 1008.06 1007.84 1007.62 1007.38 1007.13 1006.86 1006.58 1006.30 1006.02 1005.77 1005.54 1005.34 1005.19 1005.06 1004.95 1004.86 1004.77 1004.68 1004.59 1004.50 1004.43 1004.40 1004.42 1004.52 1004.70 1004.96
Thickness
5719 5718 5715 5713 5713 5711 5711 5709 5709 5708 5707 5707 5707 5708 5708 5708 5708 5709 5710 5708 5706 5705 5704 5704 5704 5704 5703 5702 5701 5700 5699 5698 5698 5697 5697 5696 5696 5695 5695 5695 5695 5694 5694
5715 5713 5711 5709 5708 5706 5705 5704 5704 5703 5702 5702 5702 5703 5703 5704 5704 5704 5705 5705 5703 5702 5701 5701 5701 5701 5700 5700 5700 5699 5698 5697 5697 5696 5696 5695 5694 5694 5694 5693 5693 5693 5692
5709 5708 5706 5705 5704 5702 5700 5700 5699 5698 5697 5698 5698 5698 5698 5698 5699 5699 5699 5700 5700 5699 5698 5697 5697 5698 5698 5698 5698 5697 5697 5696 5695 5695 5694 5694 5693 5693 5693 5692 5691 5691 5690
5703 5702 5701 5700 5698 5697 5696 5695 5694 5693 5692 5692 5692 5693 5694 5693 5694 5694 5694 5695 5695 5696 5695 5694 5693 5693 5694 5694 5695 5695 5695 5694 5693 5693 5693 5692 5692 5691 5691 5690 5690 5689 5689
5698 5697 5696 5694 5692 5691 5690 5689 5689 5687 5686 5686 5686 5688 5688 5688 5688 5689 5688 5689 5689 5689 5690 5689 5688 5689 5689 5690 5691 5691 5691 5691 5691 5691 5691 5690 5689 5689 5689 5688 5688 5687 5687
5692 5691 5690 5687 5686 5685 5684 5682 5680 5680 5680 5679 5681 5682 5682 5682 5682 5682 5682 5683 5682 5682 5683 5684 5684 5685 5684 5685 5686 5687 5687 5688 5688 5688 5688 5687 5687 5687 5686 5685 5685 5685 5685
5686 5685 5684 5681 5680 5679 5677 5676 5675 5675 5675 5674 5673 5674 5676 5677 5676 5675 5676 5676 5676 5676 5677 5677 5678 5679 5680 5680 5681 5682 5682 5683 5683 5684 5684 5684 5684 5683 5683 5683 5683 5683 5683
5679 5679 5676 5676 5674 5671 5670 5669 5667 5667 5668 5667 5664 5664 5666 5668 5667 5670 5669 5669 5669 5669 5670 5672 5671 5671 5673 5675 5676 5676 5676 5677 5678 5678 5679 5679 5680 5680 5679 5679 5680 5680 5680
5673 5670 5668 5668 5666 5665 5663 5661 5660 5659 5658 5659 5658 5656 5655 5657 5659 5663 5661 5662 5661 5662 5663 5664 5665 5665 5666 5667 5669 5669 5669 5671 5672 5673 5673 5674 5675 5675 5675 5676 5677 5677 5678
5665 5663 5661 5660 5658 5658 5656 5655 5654 5652 5650 5650 5650 5648 5647 5647 5645 5650 5653 5654 5653 5653 5655 5656 5657 5658 5658 5659 5660 5660 5662 5663 5664 5666 5667 5668 5669 5670 5670 5671 5673 5674 5674
5658 5656 5654 5653 5651 5651 5649 5647 5646 5644 5644 5643 5642 5641 5639 5638 5638 5637 5640 5642 5644 5646 5647 5647 5649 5649 5650 5651 5652 5653 5654 5655 5657 5658 5660 5662 5663 5664 5665 5667 5668 5669 5671
5652 5650 5648 5646 5645 5644 5642 5640 5638 5638 5636 5635 5634 5634 5633 5632 5632 5631 5631 5633 5635 5638 5639 5640 5641 5642 5642 5643 5644 5644 5645 5647 5649 5650 5652 5654 5656 5657 5659 5661 5662 5664 5665
5646 5643 5641 5638 5638 5636 5634 5633 5631 5631 5629 5627 5627 5627 5627 5626 5626 5625 5625 5625 5627 5630 5631 5632 5634 5634 5634 5635 5635 5634 5636 5638 5640 5642 5644 5646 5648 5650 5652 5654 5656 5657 5659
5640 5636 5634 5632 5630 5629 5628 5626 5625 5624 5623 5621 5621 5620 5620 5621 5620 5619 5618 5617 5618 5622 5624 5624 5626 5625 5625 5626 5626 5625 5628 5630 5632 5634 5636 5638 5640 5642 5644 5646 5648 5650 5652
5634 5631 5628 5626 5624 5622 5621 5619 5619 5617 5616 5616 5616 5615 5614 5615 5614 5614 5613 5612 5610 5611 5615 5617 5617 5618 5617 5617 5617 5618 5620 5622 5624 5626 5628 5629 5632 5634 5636 5639 5642 5644 5646
5628 5625 5622 5620 5618 5616 5614 5613 5613 5612 5610 5610 5609 5608 5607 5608 5607 5607 5607 5607 5606 5605 5606 5609 5610 5611 5610 5610 5610 5611 5614 5615 5617 5619 5620 5623 5624 5626 5629 5632 5634 5637 5639
5622 5620 5617 5615 5612 5610 5608 5607 5607 5606 5605 5604 5604 5603 5602 5601 5601 5602 5602 5601 5601 5600 5599 5601 5603 5604 5602 5602 5604 5605 5607 5609 5612 5613 5614 5616 5617 5619 5622 5625 5627 5630 5632
5617 5615 5613 5610 5608 5606 5604 5602 5601 5601 5600 5599 5599 5598 5597 5597 5595 5595 5595 5594 5594 5594 5593 5593 5595 5597 5597 5597 5598 5598 5601 5604 5606 5607 5608 5609 5611 5613 5616 5618 5620 5623 5625
5613 5611 5608 5606 5603 5601 5599 5598 5597 5596 5595 5595 5594 5593 5592 5591 5590 5590 5588 5589 5589 5590 5589 5588 5590 5591 5592 5592 5592 5593 5596 5597 5600 5602 5603 5604 5605 5607 5609 5612 5614 5616 5618
5609 5607 5605 5602 5600 5598 5596 5595 5594 5592 5591 5591 5590 5589 5588 5586 5585 5585 5584 5583 5584 5584 5584 5584 5585 5586 5587 5587 5586 5588 5590 5592 5595 5598 5599 5599 5600 5601 5604 5606 5608 5610 5611
5606 5604 5602 5600 5597 5594 5592 5589 5588 5588 5587 5586 5586 5585 5583 5581 5579 5578 5579 5579 5579 5579 5580 5580 5580 5581 5582 5581 5581 5583 5585 5587 5590 5592 5593 5595 5597 5599 5601 5601 5602 5604 5605
5602 5600 5598 5596 5593 5591 5585 5581 5580 5581 5582 5582 5581 5580 5579 5577 5575 5572 5571 5570 5570 5572 5574 5574 5575 5575 5576 5577 5578 5579 5580 5581 5583 5587 5587 5590 5593 5595 5598 5600 5600 5599 5599
5599 5596 5594 5592 5590 5585 5580 5577 5575 5575 5577 5577 5576 5575 5576 5575 5572 5572 5569 5566 5566 5564 5563 5566 5569 5570 5571 5572 5572 5573 5574 5575 5577 5581 5581 5585 5588 5590 5593 5596 5594 5593 5593
5596 5594 5592 5590 5587 5582 5576 5574 5572 5573 5574 5573 5572 5571 5570 5569 5568 5565 5566 5567 5566 5565 5563 5562 5563 5564 5566 5566 5566 5566 5567 5569 5572 5575 5576 5578 5583 5586 5589 5590 5588 5588 5588
5595 5593 5590 5589 5586 5581 5575 5572 5568 5572 5572 5571 5570 5569 5567 5565 5560 5558 5560 5562 5562 5562 5561 5559 5558 5559 5558 5558 5558 5561 5563 5565 5569 5573 5574 5575 5579 5580 5582 5585 5585 5583 5583
5594 5592 5590 5587 5584 5581 5574 5570 5566 5571 5571 5570 5569 5567 5563 5560 5556 5554 5556 5557 5558 5559 5559 5560 5558 5557 5557 5558 5556 5556 5560 5562 5565 5568 5571 5571 5573 5574 5576 5580 5581 5580 5578